Wind_Speed
28 24 29 24 15 13 11 11 14 16 18 29 21 16 6 6 10 11 17 18 15 13 11 10 10 9 10 10 12 12 12 10 9 9 9 8 8 9 8 8 5 9 14 14
26 29 27 23 19 17 14 17 21 24 18 30 24 19 11 5 5 5 6 9 15 15 13 10 11 12 10 10 9 10 10 9 9 7 7 8 8 6 6 8 6 5 11 12
27 22 21 21 21 17 18 22 21 27 16 28 22 22 22 17 12 10 9 6 9 11 13 12 10 12 10 10 10 9 7 7 7 8 8 6 6 5 6 6 6 5 2 4
28 29 18 21 22 19 19 6 16 15 28 27 24 11 28 24 20 20 17 16 10 8 10 10 10 11 12 12 10 12 12 11 10 10 7 5 7 7 6 5 2 3 3 5
25 21 21 22 17 12 11 8 4 16 31 25 21 10 13 26 27 25 21 15 18 12 9 5 6 8 9 9 11 11 11 12 13 11 9 8 7 6 4 3 3 5 7 7
28 17 20 25 20 14 15 11 1 19 23 10 15 29 12 21 24 18 20 17 15 17 15 11 7 9 8 9 11 11 9 6 8 9 8 8 9 11 9 8 8 10 10 11
30 28 25 23 19 15 12 12 2 1 0 7 6 19 24 24 21 20 13 14 9 16 20 17 15 10 5 11 11 11 7 5 12 11 10 11 11 16 15 13 14 17 18 18
23 19 30 25 22 12 9 15 7 5 4 5 3 6 21 25 17 14 14 8 10 17 19 22 19 15 14 12 12 14 17 8 13 11 12 17 20 21 20 22 24 24 24 25
23 22 26 30 21 13 15 15 12 8 1 3 7 14 26 11 5 12 12 15 14 14 16 17 20 23 20 17 14 13 15 5 17 21 22 20 22 26 26 26 31 31 26 34
8 19 28 27 21 19 17 15 10 6 2 4 6 13 18 7 6 12 16 15 10 9 12 14 20 25 24 21 18 16 19 15 18 23 28 23 29 27 33 38 37 32 32 24
31 17 21 30 28 25 21 24 16 9 5 7 1 6 12 14 13 14 15 15 11 6 6 10 13 17 26 26 24 22 23 21 22 27 31 26 28 28 37 45 36 40 35 37
36 21 25 23 21 23 23 23 24 18 8 6 5 3 8 12 15 18 17 16 10 6 3 2 6 15 15 24 29 29 31 32 28 30 29 32 33 35 20 18 21 34 38 39
35 38 23 25 25 25 20 23 23 28 25 21 8 4 13 17 20 18 18 17 8 3 2 4 6 7 8 11 16 22 27 32 29 32 28 32 33 20 21 19 17 20 24 37
33 36 41 32 24 21 20 19 22 29 29 26 20 13 21 21 21 21 20 13 9 11 6 5 3 3 3 4 9 14 19 25 26 31 33 29 29 23 21 18 17 23 23 25
42 42 43 36 40 33 20 19 20 31 37 31 32 25 21 24 22 26 24 16 12 8 11 10 5 1 1 6 10 12 15 19 24 29 30 31 26 22 16 17 17 21 24 29
42 37 43 41 35 42 35 27 24 21 38 36 34 28 18 24 28 29 25 18 18 13 13 11 9 7 7 10 14 15 15 18 21 27 28 24 17 16 18 21 25 30 34 35
11 45 46 37 38 38 33 37 29 20 19 19 26 30 28 28 28 28 29 22 20 15 13 9 9 4 4 6 8 9 11 15 15 16 16 18 20 22 25 30 34 36 34 33
16 15 31 38 31 8 34 35 30 24 19 23 13 14 19 24 28 31 29 24 22 14 11 6 2 2 1 2 5 5 6 7 9 12 14 17 21 25 30 34 35 32 30 31
20 19 15 25 32 20 24 20 30 26 23 22 23 18 17 25 30 35 32 26 17 15 13 7 3 6 4 2 3 4 6 8 11 15 18 23 28 32 32 30 27 25 24 25
22 22 16 24 20 15 38 26 21 20 27 24 26 26 18 30 38 38 39 34 29 21 14 8 8 7 7 9 10 11 12 15 19 22 27 32 35 32 28 26 25 24 25 26
27 24 21 19 18 22 32 30 27 28 31 24 27 27 24 27 30 30 38 37 32 21 14 9 11 8 10 10 10 11 15 19 23 27 32 35 33 30 29 28 28 29 28 28
26 17 16 15 16 9 28 30 34 29 29 28 29 25 26 18 26 33 36 39 32 19 10 10 8 9 9 9 11 15 20 25 28 32 36 34 30 29 29 29 28 28 28 29
19 18 15 13 17 16 25 27 26 28 26 23 24 32 27 24 25 33 40 35 24 13 9 9 8 10 11 14 17 20 25 28 32 34 32 29 27 27 28 27 27 28 28 28
23 18 15 14 19 23 23 21 23 20 22 23 22 25 29 28 30 34 30 23 19 11 9 9 12 13 14 17 20 24 28 32 33 29 27 25 24 25 26 26 26 26 26 26
28 18 19 19 20 19 26 23 19 18 17 20 21 19 28 35 34 29 24 19 13 12 12 12 13 14 16 19 23 27 31 30 27 24 20 21 21 21 23 22 23 26 27 27
29 32 28 30 26 20 20 18 18 18 20 16 18 19 24 24 23 25 19 17 14 13 12 12 12 14 18 23 27 29 28 24 21 18 18 18 19 20 20 23 26 28 27 28
Wind_Direction
220 231 228 209 224 231 245 260 267 261 262 227 228 234 261 152 144 127 103 95 94 111 135 145 144 141 140 137 137 138 141 148 158 164 173 199 231 247 264 266 289 301 305 316
215 223 211 219 229 233 250 272 272 284 261 226 223 226 243 226 107 108 89 96 119 109 110 135 155 158 153 156 159 158 161 161 172 187 198 221 239 254 280 279 297 301 299 319
211 214 210 218 217 231 246 264 288 289 232 209 218 218 216 209 208 208 209 168 152 132 123 121 126 141 157 169 166 173 175 181 187 201 220 241 266 269 280 300 309 338 329 39
221 213 190 207 216 230 266 285 281 246 208 197 210 224 225 219 220 226 224 221 204 165 145 137 132 134 126 141 140 173 186 195 203 215 227 253 280 283 290 264 217 136 138 117
213 210 210 215 203 225 271 315 308 209 204 199 212 219 257 224 231 243 234 232 223 216 196 157 134 150 164 159 163 170 183 198 205 221 233 241 254 271 291 244 226 187 180 189
215 203 205 212 224 249 291 267 157 174 170 207 243 209 235 231 268 277 249 232 232 235 228 202 187 194 200 193 192 197 201 210 229 223 231 254 264 264 243 224 232 249 238 238
220 214 207 214 230 229 288 223 180 110 284 224 229 216 251 287 271 267 275 244 228 233 235 230 232 254 250 209 205 208 201 284 248 234 197 219 239 249 253 241 243 248 250 252
211 225 208 208 223 237 266 227 195 175 193 263 226 262 303 301 264 264 263 228 238 242 245 245 244 260 234 228 223 216 225 327 243 243 228 227 243 234 243 232 241 252 265 264
208 223 203 210 219 232 249 231 229 233 178 294 289 303 309 295 277 207 203 216 230 246 253 264 254 246 243 241 240 238 220 330 257 227 240 289 264 268 263 249 258 257 267 276
211 225 205 208 217 231 245 234 216 208 140 274 281 301 274 266 214 180 187 204 230 253 261 265 260 252 252 248 247 241 240 281 227 258 257 302 312 277 271 304 273 254 254 278
214 213 220 217 221 221 242 236 220 220 232 171 220 266 279 252 239 222 196 202 212 223 210 245 245 261 257 257 256 251 257 279 265 268 266 288 300 293 294 299 282 252 262 267
211 228 236 224 218 223 237 237 234 229 214 215 214 284 306 190 184 195 194 215 225 218 184 222 223 252 268 262 261 261 266 270 282 301 290 272 297 297 294 297 288 262 264 259
212 222 237 246 236 234 245 238 242 232 238 230 218 245 179 183 189 197 211 215 220 214 220 263 230 200 206 240 260 268 274 273 280 287 280 281 286 281 282 283 284 264 269 260
214 225 224 228 234 227 235 237 245 245 237 236 233 233 194 205 218 223 224 216 192 173 175 173 170 117 113 216 261 267 268 272 276 277 277 268 283 283 282 290 281 261 270 262
220 224 228 237 237 233 223 238 248 245 246 239 246 248 231 225 235 231 220 218 224 209 167 164 166 163 329 295 281 281 273 271 271 270 271 277 282 288 294 295 289 285 288 287
229 222 227 233 235 239 241 246 256 259 236 243 248 249 255 225 223 225 227 219 221 208 174 173 184 208 233 248 256 259 255 261 264 270 270 278 294 296 290 292 296 297 296 294
264 225 225 230 233 234 238 233 240 251 255 251 251 255 258 222 224 233 234 226 216 203 175 184 186 174 202 231 243 253 250 254 261 269 281 286 288 294 300 302 300 298 295 292
241 223 223 225 226 184 245 239 237 244 240 240 239 241 284 240 230 222 224 232 228 211 213 216 224 330 342 226 221 233 253 263 276 275 276 287 295 300 301 300 300 298 296 294
220 229 219 206 216 235 231 218 214 217 233 250 246 260 278 226 219 214 216 216 224 231 228 242 276 310 321 307 324 318 309 301 297 299 305 310 313 311 305 301 297 296 294 291
219 226 228 209 201 206 227 221 224 225 233 242 251 260 272 227 214 221 219 222 219 224 229 246 276 296 337 339 337 329 319 312 309 311 313 314 315 311 309 308 307 305 306 309
206 215 217 216 208 213 225 224 227 218 248 251 261 258 254 230 239 243 225 223 221 223 230 253 270 317 328 323 309 303 302 299 301 305 309 310 309 309 311 313 318 318 318 316
201 200 211 218 210 195 212 215 222 244 245 252 254 250 237 226 236 230 230 225 223 219 234 252 290 306 292 283 280 280 285 293 301 307 311 310 311 313 313 316 316 315 312 309
207 208 210 221 230 225 222 230 236 240 257 258 246 238 227 229 237 229 225 226 216 221 238 259 276 272 261 266 274 287 295 302 307 311 309 309 310 311 312 312 310 307 307 306
205 212 219 234 236 224 222 221 225 242 242 246 253 251 231 229 225 221 219 213 214 218 239 259 262 266 272 283 288 295 304 309 309 310 310 310 312 310 309 311 312 311 312 315
212 199 210 222 229 227 224 220 232 239 243 250 244 239 233 226 218 219 217 200 209 230 239 245 255 269 280 291 296 303 306 306 308 311 311 311 311 309 311 316 317 317 319 320
214 218 214 223 221 224 223 229 233 248 245 238 220 212 219 221 215 205 195 205 214 221 232 251 266 284 292 294 301 304 303 306 311 313 314 314 316 318 320 323 323 324 326 326
Height
3177 3179 3178 3183 3186 3188 3188 3190 3191 3192 3194 3193 3194 3196 3196 3196 3198 3200 3199 3199 3199 3200 3202 3204 3205 3207 3209 3210 3211 3211 3212 3214 3215 3217 3218 3220 3221 3221 3221 3223 3223 3222 3221 3219
3175 3173 3178 3183 3184 3186 3187 3186 3184 3185 3186 3192 3193 3196 3197 3196 3198 3200 3201 3201 3200 3201 3202 3204 3206 3206 3208 3210 3211 3212 3213 3215 3216 3218 3219 3220 3221 3222 3223 3224 3224 3223 3221 3218
3170 3173 3175 3179 3182 3183 3184 3184 3181 3181 3184 3188 3192 3196 3194 3196 3197 3198 3199 3201 3202 3203 3204 3205 3206 3207 3207 3209 3209 3211 3213 3215 3217 3219 3221 3222 3222 3223 3222 3222 3223 3223 3220 3219
3166 3171 3172 3175 3178 3181 3181 3181 3178 3175 3180 3183 3189 3191 3191 3192 3193 3194 3197 3199 3201 3202 3203 3205 3206 3207 3207 3208 3208 3209 3211 3214 3217 3219 3221 3222 3223 3223 3222 3220 3220 3221 3221 3219
3163 3167 3170 3172 3175 3179 3178 3178 3174 3173 3178 3182 3186 3190 3185 3188 3188 3188 3191 3194 3198 3201 3202 3203 3205 3207 3209 3208 3210 3212 3215 3217 3218 3220 3222 3223 3222 3222 3222 3221 3220 3219 3218 3217
3159 3163 3166 3169 3172 3175 3176 3177 3176 3176 3179 3182 3180 3183 3180 3181 3181 3183 3188 3192 3194 3196 3199 3202 3203 3204 3206 3208 3210 3214 3215 3216 3218 3218 3219 3221 3223 3222 3219 3218 3219 3218 3217 3215
3155 3157 3162 3165 3167 3170 3172 3174 3175 3178 3179 3178 3178 3182 3178 3175 3177 3179 3183 3188 3190 3192 3195 3198 3200 3201 3204 3207 3210 3210 3212 3210 3209 3209 3208 3211 3213 3212 3214 3215 3212 3212 3212 3211
3153 3155 3157 3160 3164 3167 3169 3171 3172 3177 3180 3175 3176 3174 3173 3171 3169 3174 3179 3185 3188 3190 3192 3195 3197 3199 3202 3205 3206 3207 3207 3211 3214 3211 3207 3206 3206 3209 3212 3207 3206 3206 3206 3206
3149 3150 3154 3158 3162 3165 3166 3167 3170 3170 3172 3173 3172 3171 3169 3167 3165 3169 3175 3181 3185 3186 3189 3192 3195 3197 3200 3202 3204 3206 3207 3205 3202 3205 3205 3203 3203 3203 3203 3205 3203 3203 3203 3201
3147 3150 3151 3156 3159 3160 3162 3165 3167 3167 3171 3174 3169 3169 3167 3166 3167 3170 3174 3178 3182 3184 3187 3190 3191 3195 3198 3200 3202 3204 3202 3200 3201 3202 3202 3200 3202 3201 3198 3193 3196 3197 3195 3194
3144 3147 3148 3151 3151 3155 3159 3159 3161 3164 3166 3168 3172 3168 3165 3165 3166 3168 3172 3176 3180 3183 3185 3187 3189 3191 3194 3196 3199 3201 3200 3199 3199 3199 3198 3197 3198 3197 3194 3190 3189 3187 3188 3187
3138 3144 3144 3146 3149 3151 3152 3154 3157 3159 3164 3165 3165 3166 3163 3163 3165 3169 3171 3174 3178 3181 3183 3186 3186 3187 3189 3192 3195 3197 3196 3195 3196 3196 3196 3196 3196 3194 3190 3188 3182 3182 3182 3179
3134 3136 3141 3142 3146 3146 3148 3150 3153 3156 3158 3160 3163 3165 3163 3164 3167 3170 3172 3174 3177 3178 3180 3182 3182 3184 3186 3188 3191 3192 3191 3192 3193 3192 3192 3193 3191 3187 3186 3181 3177 3176 3174 3172
3129 3131 3132 3132 3137 3143 3146 3148 3150 3152 3153 3155 3157 3160 3161 3163 3164 3166 3168 3171 3174 3176 3177 3178 3180 3181 3183 3186 3187 3187 3187 3188 3188 3187 3187 3186 3184 3182 3179 3175 3173 3170 3167 3165
3121 3122 3127 3130 3134 3138 3141 3143 3145 3145 3149 3150 3153 3154 3157 3158 3160 3162 3166 3169 3172 3173 3174 3175 3177 3178 3180 3182 3183 3184 3184 3183 3183 3182 3181 3180 3178 3175 3171 3169 3167 3165 3162 3159
3113 3116 3121 3124 3128 3130 3135 3138 3140 3140 3143 3145 3147 3149 3153 3154 3159 3161 3163 3166 3167 3168 3170 3172 3174 3176 3178 3178 3179 3179 3178 3178 3177 3176 3175 3173 3170 3169 3167 3165 3162 3158 3154 3149
3105 3108 3113 3115 3122 3126 3128 3128 3134 3138 3140 3142 3142 3147 3148 3149 3153 3156 3159 3162 3164 3166 3167 3169 3170 3172 3174 3174 3173 3173 3172 3172 3172 3171 3170 3169 3167 3164 3161 3157 3152 3148 3143 3138
3100 3104 3106 3111 3116 3120 3113 3122 3131 3134 3136 3136 3138 3141 3141 3146 3149 3153 3156 3159 3160 3162 3164 3165 3166 3168 3169 3168 3168 3168 3167 3167 3166 3166 3165 3163 3160 3157 3153 3147 3140 3135 3133 3130
3094 3098 3099 3101 3107 3112 3112 3116 3122 3126 3130 3131 3134 3136 3138 3142 3147 3150 3153 3156 3159 3158 3159 3160 3162 3164 3164 3163 3162 3161 3161 3160 3159 3157 3155 3152 3149 3145 3140 3136 3132 3129 3126 3123
3090 3093 3095 3095 3099 3104 3107 3113 3118 3123 3121 3125 3129 3131 3134 3136 3137 3143 3146 3149 3152 3154 3155 3156 3159 3159 3157 3156 3155 3154 3154 3153 3151 3149 3147 3144 3139 3135 3131 3127 3124 3122 3117 3113
3082 3085 3087 3089 3093 3096 3103 3109 3112 3114 3115 3122 3123 3125 3128 3131 3136 3139 3141 3144 3147 3150 3151 3152 3155 3151 3151 3151 3152 3151 3151 3150 3148 3146 3143 3138 3134 3129 3123 3119 3115 3110 3106 3103
3074 3079 3082 3085 3089 3092 3096 3102 3104 3107 3112 3115 3117 3119 3121 3125 3130 3134 3136 3138 3142 3146 3147 3150 3149 3148 3148 3148 3149 3148 3147 3146 3143 3140 3136 3129 3124 3120 3115 3112 3109 3105 3102 3099
3070 3072 3077 3083 3085 3088 3090 3096 3100 3103 3107 3108 3110 3112 3114 3118 3123 3128 3132 3136 3140 3142 3144 3146 3145 3145 3144 3145 3145 3144 3142 3139 3135 3131 3127 3122 3119 3114 3110 3108 3105 3102 3097 3094
3063 3067 3073 3079 3080 3083 3085 3091 3095 3099 3103 3105 3107 3108 3111 3114 3118 3122 3129 3133 3136 3139 3140 3141 3142 3141 3141 3139 3140 3139 3136 3132 3129 3124 3120 3116 3113 3110 3107 3104 3100 3095 3091 3087
3058 3063 3069 3073 3075 3079 3082 3087 3091 3094 3098 3102 3104 3104 3108 3113 3117 3122 3125 3129 3132 3135 3136 3136 3137 3137 3137 3135 3134 3133 3130 3127 3123 3120 3116 3113 3110 3106 3102 3099 3095 3090 3085 3080
3051 3058 3063 3065 3072 3076 3080 3084 3087 3090 3095 3099 3101 3104 3108 3114 3117 3119 3121 3125 3129 3131 3132 3133 3133 3132 3131 3131 3129 3127 3124 3121 3117 3115 3112 3109 3105 3102 3099 3094 3088 3083 3079 3074